This demonstration page uses our WeatherBlox Daily Observations layout. Learn more.

Left ArrowRight Arrow

Hourly Observations for June 24, 2018

Temp ( °F °C ) Dew Point ( °F °C ) Humidity (%) Winds ( mph kmh ) Pressure ( in mb ) Visibility ( mi km ) Precip ( " mm )
12:45 am 00:45 Mostly Cloudy with Nearby Thunderstorms 72 22.2 68 20 87 87 N 13 20 29.74 1007 10 16 0.00 0.00
12:54 am 00:54 Cloudy with Nearby Thunderstorms 73 22.8 68 20 84 84 NNW 9 15 29.78 1009 9 14 0.00 0.03
1:02 am 01:02 Cloudy with Thunderstorms 72 22.2 65 18.3 79 79 NW 13 20 29.77 1008 9 14 0.00 0.03
1:54 am 01:54 Mostly Clear with Nearby Thunderstorms 67 19.4 59 15 76 76 NE 14 22 29.76 1008 10 16 0.01 0.25
2:05 am 02:05 Clear 67 19.4 59 15 76 76 ENE 9 15 29.77 1008 10 16 0.00 0.00
2:54 am 02:54 Clear 68 20 58 14.4 70 70 SSW 7 11 29.74 1007 10 16 0.00 0.00
3:54 am 03:54 Clear 67 19.4 57 13.9 71 71 Calm 29.71 1006 10 16 0.00 0.00
4:54 am 04:54 Clear 66 18.9 59 15 78 78 SSE 7 11 29.72 1006 10 16 0.00 0.00
5:54 am 05:54 Clear 67 19.4 60 15.6 79 79 Calm 29.75 1007 10 16 0.00 0.00
6:54 am 06:54 Sunny 66 18.9 62 16.7 87 87 undefined N/A 29.78 1008 10 16 0.00 0.00
7:54 am 07:54 Partly Cloudy 69 20.6 63 17.2 81 81 Calm 29.78 1009 10 16 0.00 0.00
8:54 am 08:54 Partly Cloudy with Light Rain 73 22.8 64 17.8 74 74 Calm 29.80 1009 10 16 0.00 0.03
8:57 am 08:57 Mostly Sunny 73 22.8 65 18.3 76 76 Calm 29.77 1008 10 16 0.00 0.03
9:54 am 09:54 Mostly Sunny 76 24.4 67 19.4 74 74 SE 8 13 29.82 1010 10 16 0.00 0.03
10:54 am 10:54 Sunny 79 26.1 68 20 69 69 S 8 13 29.82 1010 10 16 0.00 0.00
11:54 am 11:54 Sunny 83 28.3 67 19.4 59 59 VRB 3 6 29.81 1009 10 16 0.00 0.00
12:54 pm 12:54 Sunny 86 30 67 19.4 53 53 VRB 5 7 29.81 1010 10 16 0.00 0.00
1:54 pm 13:54 Sunny 86 30 69 20.6 57 57 SSE 15 24 29.80 1009 10 16 0.00 0.00
2:54 pm 14:54 Sunny 88 31.1 69 20.6 54 54 S 12 19 29.80 1009 10 16 0.00 0.00
3:54 pm 15:54 Sunny 88 31.1 66 18.9 48 48 S 13 20 29.78 1009 10 16 0.00 0.00
4:54 pm 16:54 Sunny 88 31.1 67 19.4 50 50 S 14 22 29.80 1009 10 16 0.00 0.00
5:54 pm 17:54 Sunny 87 30.6 65 18.3 48 48 S 16 26 29.80 1009 10 16 0.00 0.00
6:54 pm 18:54 Sunny 83 28.3 66 18.9 57 57 S 10 17 29.80 1009 10 16 0.00 0.00
7:54 pm 19:54 Sunny 80 26.7 66 18.9 62 62 SE 9 15 29.83 1010 10 16 0.00 0.00
8:54 pm 20:54 Partly Cloudy 77 25 65 18.3 66 66 SSE 8 13 29.86 1011 10 16 0.00 0.00
9:54 pm 21:54 Clear 78 25.6 65 18.3 64 64 SE 8 13 29.88 1012 10 16 0.00 0.00
10:54 pm 22:54 Mostly Clear 75 23.9 69 20.6 82 82 SE 10 17 29.90 1013 10 16 0.00 0.00
11:54 pm 23:54 Mostly Clear 73 22.8 67 19.4 81 81 ESE 12 19 29.89 1012 10 16 0.00 0.00

Powered by AerisWeather